Location: Unspecified
(0.0000°N, 0.0000°E)
Time: 07:57:05
(UTC+00:00)

AO-85 - Pass Details

Date: 27 November 2022
Orbit: 516 x 753 km, 64.8° (Epoch: 04 January)

Event Time Altitude Azimuth Distance (km) Brightness Sun altitude
Exits shadow 04:14:42 12° 212° (SSW) 1,716 ? -21.6°
Drops below altitude 10° 04:15:11 10° 206° (SSW) 1,838 ? -21.5°
Sets 04:18:09 0° 185° (S) 2,783 ? -20.8°
